Wind_Speed
5 2 2 4 3 4 2 3 2 3 2 1 3 3 3 2 1 2 9 10 8 4 5 7 7 8 10 11 13 14 16 18 19 20 22 22 23 24 24 24 24 24 24 24 22 24 22 21 17
3 2 3 2 3 1 2 3 6 4 2 6 4 2 2 2 1 4 7 11 7 4 4 7 6 7 9 10 12 14 15 17 19 20 21 22 23 24 24 25 25 25 25 24 25 21 22 19 20
3 3 3 4 3 3 3 4 5 3 5 3 3 0 3 3 2 6 6 13 8 4 3 6 4 6 7 8 10 12 14 15 17 19 20 21 22 22 24 25 25 25 25 24 24 24 21 21 20
1 5 4 4 3 1 2 4 4 6 1 2 2 2 1 3 5 7 11 12 8 3 2 5 3 4 5 7 9 11 12 14 16 17 18 20 21 21 23 23 24 25 25 25 24 23 23 21 21
5 3 4 3 2 2 2 3 6 5 4 2 2 1 1 2 5 9 13 10 7 3 3 4 3 4 4 6 9 10 11 13 15 17 18 19 20 21 22 23 24 24 25 25 25 24 24 23 20
3 2 3 2 3 2 2 4 4 3 2 2 2 3 2 2 9 12 11 8 6 4 3 3 2 1 3 6 7 9 10 12 13 15 16 17 18 19 21 22 23 24 24 24 25 24 24 24 21
5 3 3 3 3 1 5 6 4 5 4 3 3 3 0 4 11 13 11 8 7 5 4 4 3 1 1 4 5 7 8 10 11 13 14 17 19 20 20 21 22 24 24 24 24 24 24 24 23
4 4 4 2 4 3 4 4 2 4 4 2 2 4 2 3 15 13 10 9 8 8 7 6 6 4 3 4 6 8 9 11 12 13 15 17 18 21 23 25 24 24 24 23 23 22 23 23 21
2 4 2 5 6 3 4 4 1 1 3 2 3 2 0 8 17 13 10 10 10 11 9 9 8 7 6 5 6 7 9 10 11 13 14 17 19 21 23 25 26 27 24 25 23 23 23 24 22
4 3 4 1 1 4 5 3 5 3 3 3 2 2 3 17 17 15 11 11 12 11 9 9 9 9 8 7 7 8 9 9 10 12 14 16 18 19 22 25 28 29 29 29 27 24 23 23 22
3 3 4 0 1 3 6 2 3 5 5 7 8 7 9 12 14 13 12 13 11 7 7 7 8 9 9 9 9 9 10 11 12 13 14 15 16 18 21 25 29 32 32 30 30 29 25 23 22
5 2 1 2 1 2 5 3 3 6 3 0 6 8 10 12 13 15 14 12 9 8 6 6 6 6 8 10 10 10 11 12 13 14 15 16 17 18 20 23 27 31 32 30 29 29 27 23 22
4 2 3 2 3 1 1 4 5 7 6 0 5 9 10 11 12 13 11 9 7 5 3 3 4 6 7 9 11 12 12 13 14 15 15 16 17 19 19 21 25 29 31 29 27 28 27 26 24
2 3 3 2 2 1 1 1 3 2 3 5 7 8 8 10 13 9 10 10 8 4 2 1 1 3 6 8 10 11 13 14 15 15 16 17 18 18 18 21 25 29 30 28 25 25 25 26 25
5 2 0 3 5 1 2 4 7 2 4 7 7 6 6 10 11 13 10 9 6 4 3 1 2 4 5 7 9 10 11 13 14 15 15 17 18 18 18 20 23 28 30 28 25 23 23 23 25
3 4 3 1 6 1 1 7 2 4 6 7 7 6 6 6 13 13 11 8 6 4 1 2 5 6 8 9 11 11 13 13 14 15 15 15 16 17 17 19 23 26 28 26 23 21 20 20 22
6 1 2 6 3 4 1 6 1 4 5 6 8 9 8 6 9 13 12 9 6 3 1 4 7 10 11 13 13 13 13 13 13 13 14 14 16 16 16 18 21 25 27 26 23 20 19 20 22
4 4 4 5 4 3 5 15 9 7 7 13 10 10 10 8 10 13 12 10 6 2 2 5 8 10 11 13 14 15 13 11 14 14 13 14 15 15 15 18 23 25 25 23 21 19 19 19 20
1 2 5 5 3 5 4 11 16 9 6 8 9 9 9 10 5 10 10 8 5 2 2 6 10 11 12 13 13 12 11 12 12 16 16 16 15 15 16 20 22 22 22 22 21 18 18 19 18
3 2 5 6 1 2 5 18 11 4 4 4 8 8 8 5 4 7 10 8 6 3 5 8 11 12 11 9 9 10 12 12 13 15 17 16 15 15 18 21 22 22 22 23 21 17 16 14 14
2 3 3 5 8 2 7 6 0 2 2 3 2 5 4 8 7 5 9 8 6 3 5 8 13 15 12 11 9 9 10 10 12 15 18 18 18 18 18 19 20 20 21 21 19 16 13 14 12
4 1 1 5 5 3 5 4 3 1 2 4 3 6 6 7 4 3 9 8 4 3 3 5 11 13 12 11 9 8 9 11 12 15 16 17 21 21 21 20 18 19 18 20 18 12 12 12 13
5 0 2 1 1 3 3 2 5 1 2 2 3 4 4 5 6 6 8 5 3 3 3 8 12 15 15 14 11 8 8 10 13 15 17 18 20 22 23 20 19 18 18 19 18 17 13 12 12
4 2 2 2 2 2 3 2 4 4 4 4 2 4 6 6 6 6 5 3 3 2 3 9 12 14 14 13 9 6 7 8 11 15 19 21 23 23 22 21 19 19 19 19 19 17 15 13 13
4 5 4 5 4 4 4 1 7 2 2 5 7 6 5 5 5 4 2 2 1 2 6 11 14 14 16 14 10 7 6 9 13 17 19 22 24 23 23 20 20 19 18 19 18 18 15 13 13
3 4 4 4 3 5 1 5 3 3 5 4 5 6 5 5 3 2 1 2 3 4 8 11 13 14 15 14 11 8 9 12 16 17 19 22 22 22 21 19 18 18 19 20 20 19 16 15 15
1 1 2 5 1 1 3 7 2 1 4 3 6 5 5 4 1 2 4 5 6 6 7 10 13 13 15 15 12 11 12 16 17 18 19 19 20 20 17 19 19 19 19 19 19 18 16 15 15
3 1 3 3 2 5 4 5 6 3 7 5 6 7 6 2 2 3 6 9 8 7 9 10 10 12 14 14 11 13 18 17 17 19 19 19 20 19 19 19 19 19 19 19 18 18 16 15 15
1 2 4 2 2 3 4 6 5 5 9 14 13 7 7 6 5 5 8 10 9 8 11 11 12 13 13 13 12 18 18 17 18 19 20 19 19 19 20 19 19 19 20 19 18 18 18 17 16
1 5 5 3 3 3 2 8 1 4 3 1 4 6 5 4 4 5 10 10 9 10 13 13 13 15 15 14 16 18 18 19 20 21 20 19 19 20 20 20 19 20 20 19 18 18 18 17 16
Wind_Direction
348 32 95 40 63 63 135 202 104 149 188 197 108 154 190 54 147 118 143 159 150 109 50 65 46 42 38 37 35 33 31 31 32 30 31 29 27 25 23 21 19 16 11 5 359 0 1 355 349
35 88 62 80 88 71 246 150 182 189 161 124 109 101 184 142 148 131 155 164 151 105 56 72 51 46 40 37 35 34 31 29 28 28 27 27 26 25 22 22 19 15 11 7 3 358 357 354 10
93 59 78 88 99 183 195 193 153 154 158 174 142 336 145 143 166 168 157 161 152 115 84 87 60 55 45 40 38 33 29 27 25 23 22 23 23 23 22 21 16 14 12 7 2 2 354 352 355
44 31 49 81 164 199 163 167 159 146 205 189 149 138 208 188 149 153 158 159 151 134 133 113 69 59 48 34 34 28 23 21 21 20 18 18 18 19 20 17 15 12 10 5 2 0 357 348 347
48 58 66 85 177 187 212 165 162 166 158 149 182 133 225 190 174 162 160 158 158 168 160 141 83 54 38 27 21 21 19 17 18 16 15 16 17 16 15 14 10 8 7 3 360 358 354 350 343
46 95 70 220 213 197 219 169 175 164 140 154 124 151 223 184 176 165 167 165 181 183 178 185 158 76 32 15 12 15 13 15 17 15 13 14 15 15 13 11 8 5 1 359 357 355 352 349 341
114 86 172 154 184 224 198 157 178 169 156 224 146 168 171 208 170 170 172 182 205 209 213 204 209 237 340 4 9 6 8 13 11 6 6 4 3 6 9 7 5 0 356 354 354 351 350 347 342
100 89 115 188 183 217 170 160 107 148 210 84 178 214 219 203 172 171 182 200 217 225 232 229 233 247 285 334 350 355 356 357 357 360 360 2 3 3 3 1 1 357 354 348 349 347 346 343 341
135 69 181 197 162 171 164 160 204 113 125 210 203 192 99 153 167 169 182 210 225 233 239 242 246 255 274 304 333 346 350 353 354 356 356 359 3 4 5 3 0 358 354 348 345 343 339 336 332
68 112 187 146 148 176 177 189 169 152 175 239 225 204 146 161 169 176 189 215 232 240 247 253 257 263 271 286 307 327 339 345 348 348 353 356 358 0 359 358 358 356 353 347 346 340 334 331 333
13 124 158 49 91 137 154 189 161 163 219 214 201 183 162 169 185 192 205 222 235 251 253 251 257 256 259 272 289 312 323 330 337 340 342 346 349 350 353 356 356 356 353 352 346 345 341 333 333
83 56 39 165 3 132 165 132 245 197 226 116 213 168 163 173 192 200 216 229 241 248 251 246 259 269 267 275 289 300 310 318 322 326 328 334 339 345 348 354 354 355 354 351 349 345 342 333 328
77 148 73 109 68 61 101 237 257 246 226 84 134 150 168 182 200 211 224 238 240 241 244 237 271 285 283 283 289 296 303 308 312 315 318 322 329 335 338 346 351 352 351 350 347 343 340 334 327
93 92 108 64 34 305 277 258 6 255 175 160 159 173 181 192 201 211 223 229 220 201 182 128 337 300 295 296 296 302 302 305 308 310 315 318 319 325 328 338 346 349 349 346 342 341 336 331 327
143 76 61 23 339 162 97 253 235 262 142 160 178 184 196 213 205 211 203 201 181 160 141 101 10 332 325 325 320 318 316 315 315 317 320 319 319 321 323 332 341 344 344 342 339 337 335 330 327
52 53 5 64 354 70 59 276 186 159 153 187 198 204 207 219 216 212 206 197 181 166 132 354 333 322 315 314 316 325 329 326 324 323 322 323 322 319 317 327 335 339 339 339 337 333 333 329 326
14 305 323 316 55 312 62 273 233 160 181 209 212 216 214 223 230 218 211 202 189 188 295 327 318 317 314 306 304 305 313 327 333 332 330 330 330 325 317 322 329 333 335 336 335 330 329 326 326
319 333 311 255 348 351 272 264 255 250 229 245 231 216 212 213 224 210 209 202 199 217 319 331 325 320 309 301 297 297 301 319 336 341 340 336 334 328 320 320 326 330 330 330 332 328 324 319 324
277 260 271 270 11 332 264 282 282 273 223 234 226 206 198 205 226 215 207 197 193 200 11 348 346 346 339 326 310 301 298 304 323 338 344 340 338 331 324 321 323 325 325 325 326 324 321 325 334
223 281 276 276 165 347 330 291 276 234 223 223 209 190 185 167 202 205 196 182 179 115 34 23 14 1 352 338 315 297 295 304 317 334 337 336 335 328 325 324 323 323 321 320 322 324 319 319 337
243 210 271 254 321 226 308 286 360 170 104 38 123 160 160 189 191 184 167 165 142 80 56 43 19 7 356 346 329 309 301 299 306 323 330 330 328 328 327 322 319 318 314 311 314 317 312 310 319
308 107 318 292 360 289 360 281 282 31 81 35 63 160 183 189 187 175 154 145 130 85 92 17 5 360 355 349 336 313 299 301 307 315 318 318 319 323 324 321 318 311 306 305 307 308 302 299 298
265 290 252 138 139 8 346 64 266 332 144 111 88 124 151 176 171 159 150 131 109 72 22 355 352 356 355 350 342 320 298 292 295 303 307 308 311 313 315 317 313 307 300 299 299 301 297 289 283
324 286 139 73 120 2 244 111 274 192 194 151 121 126 135 133 135 115 130 112 93 68 8 344 341 352 347 343 336 316 294 289 293 304 310 314 314 313 312 310 306 304 295 293 294 292 288 285 281
23 28 334 349 0 238 161 335 258 325 27 176 158 153 146 133 130 147 107 80 81 1 342 338 338 339 342 339 339 329 307 302 307 311 313 313 312 311 308 306 304 299 294 290 289 286 285 281 274
36 133 149 262 287 302 104 249 271 264 326 138 139 148 153 152 147 148 179 333 314 317 325 325 330 325 333 332 329 318 309 308 308 307 309 306 305 304 302 300 300 298 295 289 285 282 280 277 269
222 45 163 102 101 8 267 291 290 4 73 133 170 179 181 161 126 353 322 282 277 282 301 315 322 316 328 328 314 302 302 305 304 307 307 304 302 302 300 299 298 299 295 289 284 280 278 273 265
126 145 39 16 323 288 279 282 253 232 200 216 226 220 210 203 309 288 272 268 266 286 301 307 305 314 318 316 299 297 304 303 304 308 308 305 303 302 300 299 300 301 296 290 284 279 276 270 265
59 15 44 118 132 211 299 262 217 223 196 206 215 214 211 221 252 268 278 280 280 289 305 311 306 310 309 306 292 302 303 301 305 306 306 304 301 301 299 300 301 301 295 289 282 276 275 268 263
130 205 158 148 217 235 225 269 150 239 266 72 246 246 248 235 278 273 281 284 270 288 317 315 310 307 310 305 302 306 304 304 305 305 305 303 301 300 300 300 300 297 290 286 280 275 271 265 261
Height
786 785 785 786 804 816 833 836 837 840 841 840 841 841 840 844 838 842 852 853 855 856 856 856 857 857 856 856 855 854 852 850 847 845 841 839 837 835 833 831 829 826 825 823 820 817 815 814 811
785 785 786 797 814 821 824 837 836 837 837 842 842 843 842 841 848 850 852 853 854 855 855 856 857 857 856 855 855 854 852 851 848 846 843 841 838 836 834 831 829 827 825 823 820 817 816 814 811
786 785 792 811 830 822 825 835 836 839 841 839 841 844 842 843 848 848 849 851 853 854 855 855 857 856 856 856 855 854 853 850 849 847 845 842 840 837 834 831 831 828 826 824 821 818 817 815 812
786 788 804 813 820 831 831 833 836 839 839 839 839 839 845 844 845 846 848 850 852 853 854 855 856 857 857 857 855 854 853 851 848 847 846 843 841 838 835 833 831 829 826 824 822 819 817 815 813
787 796 816 826 828 833 835 834 837 836 836 837 838 839 842 844 845 846 848 849 851 853 854 855 856 856 857 857 855 854 853 851 848 846 844 843 841 838 835 833 831 829 826 824 821 818 816 814 813
796 802 817 821 828 833 834 834 835 836 837 838 838 841 839 842 844 846 848 850 852 853 854 855 855 856 856 856 855 854 852 850 848 846 844 842 839 836 834 832 830 828 826 824 821 818 816 813 811
799 809 819 824 830 831 829 834 834 835 838 836 837 837 840 841 842 845 848 849 851 853 854 854 854 854 854 854 853 852 852 849 848 845 843 840 838 835 833 831 829 827 824 822 820 817 815 811 809
804 813 828 830 830 822 831 832 833 832 834 838 836 835 835 837 841 845 847 849 850 852 853 853 853 853 853 853 853 851 850 848 847 845 843 840 837 835 832 830 828 825 822 820 818 816 813 808 807
802 815 824 822 829 822 833 830 833 834 834 836 836 835 837 837 841 844 846 849 849 849 850 851 851 851 852 852 852 850 849 847 846 845 843 841 838 835 832 831 828 825 822 817 815 812 810 807 805
808 818 817 826 825 827 830 829 831 833 835 834 835 836 836 838 840 842 845 847 847 847 848 849 849 850 850 850 850 849 847 846 845 844 842 840 838 836 833 830 827 824 821 816 812 809 807 804 803
819 819 827 829 828 827 829 829 831 832 832 826 827 830 835 838 840 841 843 844 845 845 846 847 848 848 847 847 847 847 847 846 845 844 842 840 838 835 833 830 827 823 819 815 810 806 804 802 801
821 829 828 830 830 828 830 831 830 831 822 824 824 826 832 835 838 839 841 842 843 843 844 845 845 845 845 846 845 844 844 844 844 843 841 839 837 835 832 829 827 822 818 814 810 806 803 801 798
821 828 831 832 832 831 831 830 828 826 823 824 824 827 830 833 836 838 839 841 841 841 841 842 842 844 844 843 843 843 842 842 842 841 840 838 835 833 831 829 825 821 817 813 810 807 803 799 796
829 831 832 832 832 832 831 829 831 817 820 824 825 827 830 832 834 836 838 838 839 840 841 842 842 842 842 842 841 841 840 839 838 838 837 835 834 832 830 827 824 820 816 813 809 807 803 799 795
829 825 830 833 835 830 837 829 828 819 822 823 826 828 830 831 833 833 835 836 837 838 840 841 840 841 841 840 840 839 838 837 836 835 834 834 832 831 828 827 824 820 815 812 809 805 802 798 794
827 828 825 831 835 830 828 810 812 820 822 823 826 828 829 830 830 831 833 834 835 837 838 839 840 840 839 839 838 837 837 836 834 833 832 831 829 827 826 824 822 819 816 812 808 804 800 796 794
836 828 828 826 841 839 828 815 811 821 822 821 823 825 827 828 829 829 831 833 834 836 837 838 838 838 837 836 835 835 835 835 834 832 830 828 827 825 824 821 818 817 813 811 808 805 801 795 791
835 837 836 836 839 841 834 821 815 818 820 817 819 822 825 827 826 828 830 832 833 835 835 836 836 834 833 831 831 831 831 831 830 829 827 825 823 822 819 819 816 813 811 809 807 805 801 797 789
849 849 848 842 849 840 831 829 813 812 817 816 817 819 821 824 825 827 829 830 832 832 833 833 833 833 832 831 830 827 826 825 825 824 824 823 821 820 818 817 813 811 808 806 805 803 800 796 790
850 849 850 841 845 849 840 820 811 808 805 808 811 817 819 823 824 825 826 828 830 831 832 832 832 831 830 827 827 826 824 822 821 819 820 820 819 817 814 812 810 808 805 803 802 801 799 795 792
844 850 851 853 851 852 850 811 795 802 804 809 810 813 817 819 821 823 824 827 829 830 830 830 831 830 828 825 823 823 822 820 819 817 816 817 816 815 813 810 807 805 805 802 800 800 799 796 793
850 854 858 860 859 838 853 811 797 799 803 812 812 812 814 817 821 822 824 826 826 827 827 827 827 825 823 820 819 818 819 819 817 816 814 814 813 811 809 807 806 803 802 799 797 797 797 796 793
844 858 860 862 878 878 849 851 796 804 799 806 812 813 815 817 819 821 823 825 826 826 827 827 827 825 822 821 818 817 816 816 815 814 812 810 809 807 805 802 801 800 798 795 793 793 793 793 792
860 859 861 872 872 852 872 852 798 798 796 808 812 814 815 817 819 821 823 824 824 824 824 824 822 820 819 817 813 811 813 814 813 811 808 805 803 801 800 799 796 795 794 792 790 788 788 788 787
863 857 846 832 838 819 872 857 802 801 803 806 811 815 816 817 819 819 820 820 822 822 822 821 819 818 818 817 814 812 812 811 811 808 804 802 798 796 795 795 792 790 789 788 786 784 783 783 783
870 874 863 852 840 844 862 829 794 809 812 809 813 814 815 815 816 817 817 817 818 818 818 818 818 816 815 813 810 809 809 808 807 805 802 798 795 793 792 788 786 786 784 783 782 780 778 777 778
866 869 876 899 930 886 838 820 807 811 813 815 814 815 814 814 814 814 815 816 817 817 817 815 814 814 812 810 808 807 806 805 802 800 797 794 792 788 786 784 781 779 779 778 777 774 773 772 772
877 883 869 893 861 848 829 852 796 811 813 816 817 816 814 813 814 815 815 815 815 815 814 813 811 808 807 806 805 804 802 800 798 796 792 790 787 783 781 779 775 774 773 773 772 769 768 767 766
883 889 896 893 886 862 860 822 815 814 812 811 809 813 814 814 815 814 814 814 813 814 813 810 808 806 804 802 801 799 797 795 792 789 787 784 781 779 776 772 769 767 768 768 766 764 763 762 760
890 873 877 854 848 871 871 803 819 822 830 828 823 819 818 817 814 814 814 813 812 812 809 807 804 802 800 797 796 793 791 789 787 784 781 778 775 773 770 767 763 761 762 762 760 758 758 757 756